Change the Weather History Date:

Wednesday, April 2, 2014

  Actual Average Record
Temperature  
Mean Temperature 51 °F 50 °F  
Max Temperature 63 °F 62 °F 84 °F (1992)
Min Temperature 38 °F 39 °F 24 °F (1976)
Degree Days  
Heating Degree Days 14 15  
Month to date heating degree days 32 30  
Since 1 July heating degree days 3823 3662  
Cooling Degree Days 0 0  
Month to date cooling degree days 0 0  
Year to date cooling degree days 0 0  
Moisture  
Dew Point 36 °F    
Average Humidity 61    
Maximum Humidity 92    
Minimum Humidity 30    
Precipitation  
Precipitation T in 0.04 in 0.60 in (1927)
Month to date precipitation T 0.09  
Year to date precipitation 8.83 6.24  
Snow  
Snow 0.00 in 0.00 in - ()
Month to date snowfall 0.0 0.0  
Since 1 July snowfall 3.4 4.1  
Snow Depth 0.00 in    
Sea Level Pressure  
Sea Level Pressure 30.01 in    
Wind  
Wind Speed 3 mph (NW)    
Max Wind Speed 10 mph    
Max Gust Speed 15 mph    
Visibility 10 miles    
Events      
T = Trace of Precipitation, MM = Missing Value Source: NWS Daily Summary

Daily Weather History Graph

Daily Weather History Graph

Search for Another Location

Airport or City:

Trip Planner

Search our weather history database for the weather conditions in past years. The results will help you decide how hot, cold, wet, or windy it might be!

Date:

Astronomy

Apr. 02, 2014 Rise Set
Actual Time 6:52 AM PDT 7:38 PM PDT
Civil Twilight 6:23 AM PDT 8:07 PM PDT
Nautical Twilight 5:49 AM PDT 8:40 PM PDT
Astronomical Twilight 5:15 AM PDT 9:15 PM PDT
Moon 8:37 AM PDT (4/2) 11:10 PM PDT (4/2)
Length of Visible Light 13h 43m
Length of Day
12h 46m
Waxing Crescent, 11% of the Moon is Illuminated
Apr 2
Waxing Crescent
Apr 7
First Quarter
Apr 15
Full
Apr 22
Last Quarter
Apr 28
New

Hourly Weather History & Observations

Time (PDT) Temp. Windchill Dew Point Humidity Pressure Visibility Wind Dir Wind Speed Gust Speed Precip Events Conditions
12:53 AM 46.0 °F - 37.9 °F 73% 29.94 in 10.0 mi Calm Calm - 0.00 in   Overcast
1:53 AM 46.0 °F - 39.0 °F 76% 29.94 in 10.0 mi Calm Calm - 0.00 in   Overcast
2:53 AM 45.0 °F 43.5 °F 37.9 °F 76% 29.95 in 10.0 mi South 3.5 mph - 0.00 in   Overcast
3:53 AM 45.0 °F - 37.9 °F 76% 29.95 in 10.0 mi Calm Calm - N/A   Overcast
5:53 AM 41.0 °F - 37.0 °F 86% 29.98 in 10.0 mi Calm Calm - N/A   Scattered Clouds
6:53 AM 39.0 °F 36.8 °F 35.1 °F 86% 30.01 in 10.0 mi North 3.5 mph - N/A   Scattered Clouds
7:53 AM 37.9 °F - 35.1 °F 89% 30.04 in 10.0 mi Calm Calm - N/A   Scattered Clouds
8:53 AM 41.0 °F - 36.0 °F 82% 30.04 in 10.0 mi Calm Calm - N/A   Mostly Cloudy
9:53 AM 46.9 °F - 37.9 °F 71% 30.06 in 10.0 mi Variable 3.5 mph - N/A   Scattered Clouds
10:53 AM 50.0 °F - 37.0 °F 61% 30.07 in 10.0 mi Variable 3.5 mph - N/A   Scattered Clouds
11:53 AM 52.0 °F - 37.0 °F 57% 30.06 in 10.0 mi SSE 4.6 mph - N/A   Scattered Clouds
12:53 PM 55.0 °F - 36.0 °F 49% 30.05 in 10.0 mi Calm Calm - N/A   Clear
1:53 PM 57.9 °F - 36.0 °F 44% 30.04 in 10.0 mi WNW 6.9 mph - N/A   Scattered Clouds
2:53 PM 59.0 °F - 37.4 °F 45% 30.03 in 10.0 mi NNE 4.6 mph - N/A   Clear
3:53 PM 61.0 °F - 35.1 °F 38% 30.01 in 10.0 mi NNW 3.5 mph - N/A   Scattered Clouds
4:53 PM 62.1 °F - 35.1 °F 37% 30.00 in 10.0 mi Variable 4.6 mph - N/A   Clear
5:53 PM 63.0 °F - 30.9 °F 30% 29.99 in 10.0 mi WNW 8.1 mph - N/A   Clear
6:53 PM 60.1 °F - 34.0 °F 38% 29.99 in 10.0 mi NNE 4.6 mph - N/A   Clear
7:53 PM 57.9 °F - 34.0 °F 41% 29.99 in 10.0 mi West 3.5 mph - N/A   Clear
8:53 PM 53.1 °F - 37.9 °F 57% 30.01 in 10.0 mi Calm Calm - N/A   Clear
9:53 PM 51.1 °F - 37.9 °F 61% 30.03 in 10.0 mi SE 3.5 mph - N/A   Clear
10:53 PM 50.0 °F - 37.9 °F 63% 30.03 in 10.0 mi Calm Calm - N/A   Overcast
11:53 PM 50.0 °F - 37.9 °F 63% 30.03 in 10.0 mi South 3.5 mph - N/A   Overcast